Flag for United Kingdom Weather past 2 weeks in Liverpool, England, United Kingdom

Now
50 °F

Passing clouds.


Feels Like: 43 °F
Forecast: 53 / 62 °F
Wind: 25 mph from Northwest

Location: Liverpool Airport

Current Time: Oct 22, 2014 at 2:03:26 AM

Latest Report: Oct 22, 2014 at 1:20 AM


Visibility: N/A

Pressure: 30.12 "Hg

Humidity: 71%

Dew point: 41 °F

Location of LiverpoolLocation

Historic Weather in Liverpool — Graph

°F

Liverpool temperature yesterday

Maximum temperature yesterday: 59 °F (at 5:20 AM)
Minimum temperature yesterday: 46 °F (at 6:20 PM)
Average temperature yesterday: 52 °F

Past Weeks' High & Low Weather Summary

 TemperatureHumidityPressure
High68 °F (Oct 18, 2:50 PM)100% (Oct 7, 12:50 AM)30.12 "Hg (Oct 7, 12:50 AM)
Low37 °F (Oct 12, 8:20 AM)54% (Oct 21, 3:50 PM)29.15 "Hg (Oct 8, 3:50 PM)
Average54 °F85%29.64 "Hg
* Reported Oct 7 12:20 AM — Oct 22 12:50 AM, Liverpool, Weather by CustomWeather, © 2014

Note: Actual official high and low records may vary slightly from our data, if they occured in-between our weather recording intervals... More about our weather records

Advertising

Liverpool weather history for previous 24 hours

 ConditionsComfort  
Time TempWeatherWind HumidityBarometerVisibility
12:50 AM
Oct 22
50 °FSprinkles. Passing clouds.22 mph76%30.12 "HgN/A
12:20 AM52 °FPassing clouds.26 mph67%30.12 "HgN/A
11:50 PM
Oct 21
50 °FPassing clouds.26 mph67%30.12 "HgN/A
11:20 PM50 °FPassing clouds.24 mph67%30.09 "HgN/A
10:50 PM50 °FPassing clouds.23 mph67%30.07 "HgN/A
10:20 PM50 °FSprinkles. Passing clouds.25 mph67%30.07 "HgN/A
9:50 PM48 °FSprinkles. Passing clouds.17 mph71%30.07 "HgN/A
9:20 PM50 °FSprinkles. Passing clouds.24 mph67%30.04 "HgN/A
8:50 PM48 °FSprinkles. Passing clouds.20 mph71%30.04 "Hg6 mi
8:20 PM46 °FRain showers. Passing clouds.24 mph82%30.01 "Hg5 mi
7:50 PM48 °FSprinkles. Passing clouds.29 mph71%30.01 "Hg5 mi
7:20 PM46 °FRain showers. Passing clouds.24 mph76%29.98 "Hg4 mi
6:50 PM48 °FRain showers. Scattered clouds.30 mph66%29.95 "Hg4 mi
6:20 PM46 °FRain showers. Broken clouds.26 mph82%29.92 "Hg4 mi
5:50 PM48 °FScattered showers. Scattered clouds.30 mph66%29.89 "Hg6 mi
5:20 PM48 °FSprinkles. Scattered clouds.28 mph71%29.89 "Hg6 mi
4:50 PM52 °FScattered showers. Partly sunny.31 mph54%29.83 "HgN/A
4:20 PM52 °FScattered showers. Partly sunny.31 mph62%29.83 "Hg6 mi
3:50 PM54 °FScattered showers. Scattered clouds.36 mph54%29.80 "Hg6 mi
3:20 PM52 °FScattered showers. Scattered clouds.35 mph62%29.77 "Hg6 mi
2:50 PM50 °FSprinkles. Scattered clouds.31 mph67%29.77 "Hg6 mi
2:20 PM52 °FSprinkles. Scattered clouds.35 mph72%29.71 "Hg6 mi
1:50 PM50 °FLight rain. Scattered clouds.38 mph71%29.71 "Hg6 mi
1:20 PM54 °FScattered showers. Passing clouds.37 mph58%29.68 "HgN/A
12:50 PM54 °FScattered showers. Scattered clouds.37 mph58%29.65 "HgN/A
12:20 PM54 °FScattered showers. Scattered clouds.33 mph63%29.65 "HgN/A
11:50 AM54 °FRain showers. Scattered clouds.29 mph63%29.62 "HgN/A
11:20 AM52 °FRain showers. Scattered clouds.35 mph67%29.59 "HgN/A
10:50 AM52 °FRain showers. Scattered clouds.30 mph72%29.59 "HgN/A
10:20 AM52 °FRain showers. Scattered clouds.38 mph72%29.56 "HgN/A
9:50 AM50 °FRain showers. Scattered clouds.32 mph82%29.53 "HgN/A
9:20 AM52 °FRain showers. Scattered clouds.35 mph77%29.50 "HgN/A
8:50 AM52 °FScattered showers. Scattered clouds.33 mph72%29.50 "HgN/A
8:20 AM52 °FSprinkles. Passing clouds.37 mph72%29.47 "HgN/A
7:50 AM52 °FLight rain. Passing clouds.35 mph77%29.47 "HgN/A
7:20 AM52 °FLight rain. Passing clouds.37 mph77%29.45 "HgN/A
6:50 AM54 °FRain. Passing clouds.30 mph82%29.42 "HgN/A
6:20 AM54 °FPassing clouds.31 mph88%29.39 "HgN/A
5:50 AM55 °FLight rain. Passing clouds.31 mph88%29.39 "Hg6 mi
5:20 AM59 °FPassing clouds.17 mph82%29.36 "HgN/A
4:50 AM57 °FSprinkles. Passing clouds.18 mph88%29.36 "HgN/A
4:20 AM55 °FPassing clouds.24 mph88%29.36 "HgN/A
3:50 AM55 °FPassing clouds.21 mph88%29.39 "HgN/A
3:20 AM55 °FLight rain. Passing clouds.20 mph88%29.45 "HgN/A
2:50 AM55 °FLight rain. Passing clouds.21 mph88%29.47 "HgN/A
2:20 AM57 °FSprinkles. Passing clouds.17 mph77%29.50 "HgN/A
Weather by CustomWeather, © 2014

See weather overviewHow to use our weather pages